Savannah, GA

8:47 PM EST on December 05, 2016 (GMT -0500)
Savannah International

Weather History for KSAV - May, 2014

Change the Weather History Date:

Monday, May 12, 2014

  Actual Average Record
Temperature  
Mean Temperature 79 °F 72 °F  
Max Temperature 89 °F 84 °F 95 °F (1905)
Min Temperature 68 °F 61 °F 44 °F (1969)
Degree Days  
Heating Degree Days 0 0  
Month to date heating degree days 0 6  
Since 1 July heating degree days 1682 1809  
Cooling Degree Days 14 8  
Month to date cooling degree days 126 76  
Year to date cooling degree days 294 212  
Growing Degree Days 28 (Base 50)    
Moisture  
Dew Point 67 °F    
Average Humidity 68    
Maximum Humidity 90    
Minimum Humidity 46    
Precipitation  
Precipitation 0.00 in 0.09 in 3.33 in (1974)
Month to date precipitation 2.06 1.01  
Year to date precipitation 14.37 14.29  
Sea Level Pressure  
Sea Level Pressure 30.17 in    
Wind  
Wind Speed 6 mph (South)    
Max Wind Speed 17 mph    
Max Gust Speed 21 mph    
Visibility 10 miles    
Events      
T = Trace of Precipitation, MM = Missing Value Source: NWS Daily Summary

Daily Weather History Graph

Daily Weather History Graph

Search for Another Location

Airport or City:

Trip Planner

Search our weather history database for the weather conditions in past years. The results will help you decide how hot, cold, wet, or windy it might be!

Date:

Astronomy

May. 12, 2014 Rise Set
Actual Time 6:29 AM EDT 8:13 PM EDT
Civil Twilight 6:02 AM EDT 8:40 PM EDT
Nautical Twilight 5:30 AM EDT 9:12 PM EDT
Astronomical Twilight 4:56 AM EDT 9:46 PM EDT
Moon 6:16 PM EDT (5/12) 4:58 AM EDT (5/12)
Length of Visible Light 14h 37m
Length of Day
13h 44m
Waxing Gibbous, 95% of the Moon is Illuminated
May 12
Waxing Gibbous
May 14
Full
May 21
Last Quarter
May 28
New
Jun 5
First Quarter

Hourly Weather History & Observations

Time (EDT) Temp. Heat Index Dew Point Humidity Pressure Visibility Wind Dir Wind Speed Gust Speed Precip Events Conditions
12:53 AM 71.1 °F - 66.9 °F 87% 30.14 in 10.0 mi Calm Calm - N/A   Clear
1:53 AM 70.0 °F - 66.9 °F 90% 30.14 in 10.0 mi SSE 4.6 mph - N/A   Clear
2:53 AM 69.1 °F - 66.0 °F 90% 30.13 in 10.0 mi South 5.8 mph - N/A   Clear
3:53 AM 69.1 °F - 64.9 °F 87% 30.13 in 10.0 mi South 4.6 mph - N/A   Partly Cloudy
4:53 AM 69.1 °F - 64.9 °F 87% 30.14 in 10.0 mi South 3.5 mph - N/A   Scattered Clouds
5:53 AM 69.1 °F - 64.9 °F 87% 30.15 in 10.0 mi South 3.5 mph - N/A   Mostly Cloudy
6:53 AM 69.1 °F - 64.9 °F 87% 30.17 in 9.0 mi Calm Calm - N/A   Partly Cloudy
7:53 AM 72.0 °F - 66.9 °F 84% 30.19 in 10.0 mi Calm Calm - N/A   Partly Cloudy
8:53 AM 75.9 °F - 69.1 °F 79% 30.20 in 10.0 mi West 3.5 mph - N/A   Clear
9:53 AM 79.0 °F - 69.1 °F 72% 30.22 in 10.0 mi SSW 6.9 mph - N/A   Scattered Clouds
10:53 AM 82.0 °F 85.9 °F 70.0 °F 67% 30.22 in 10.0 mi WSW 8.1 mph - N/A   Mostly Cloudy
11:26 AM 82.4 °F 86.3 °F 69.8 °F 66% 30.22 in 10.0 mi Variable 6.9 mph - N/A   Mostly Cloudy
11:53 AM 86.0 °F 90.7 °F 70.0 °F 59% 30.22 in 10.0 mi SW 6.9 mph - N/A   Scattered Clouds
1:53 PM 87.1 °F 89.9 °F 66.9 °F 51% 30.19 in 10.0 mi SW 8.1 mph - N/A   Mostly Cloudy
2:53 PM 88.0 °F 90.3 °F 66.0 °F 48% 30.17 in 10.0 mi SSE 8.1 mph - N/A   Scattered Clouds
3:53 PM 88.0 °F 89.6 °F 64.9 °F 46% 30.16 in 10.0 mi SSE 10.4 mph - N/A   Scattered Clouds
4:53 PM 87.1 °F 88.3 °F 64.0 °F 46% 30.14 in 10.0 mi SSE 13.8 mph - N/A   Scattered Clouds
5:53 PM 84.9 °F 85.4 °F 62.1 °F 46% 30.14 in 10.0 mi SSE 15.0 mph - N/A   Mostly Cloudy
6:53 PM 82.0 °F 84.1 °F 66.0 °F 58% 30.14 in 10.0 mi SSE 13.8 mph - N/A   Mostly Cloudy
7:53 PM 79.0 °F - 66.9 °F 66% 30.14 in 10.0 mi South 9.2 mph - N/A   Mostly Cloudy
8:53 PM 75.9 °F - 68.0 °F 76% 30.15 in 10.0 mi South 8.1 mph - N/A   Mostly Cloudy
9:53 PM 73.9 °F - 68.0 °F 82% 30.16 in 10.0 mi South 4.6 mph - N/A   Scattered Clouds
10:53 PM 73.0 °F - 68.0 °F 84% 30.17 in 10.0 mi South 5.8 mph - N/A   Mostly Cloudy
11:53 PM 72.0 °F - 68.0 °F 87% 30.16 in 10.0 mi South 4.6 mph - N/A   Mostly Cloudy